Weather History for Alexandria, LA

Change the Weather History Date:

Sunday, April 27, 2014

  Actual Average Record
Temperature  
Mean Temperature 82 °F 69 °F  
Max Temperature 91 °F 81 °F 93 °F (2011)
Min Temperature 73 °F 58 °F 39 °F (1910)
Degree Days  
Heating Degree Days 0 1  
Month to date heating degree days 81 65  
Since 1 July heating degree days 2414 1945  
Cooling Degree Days 17 5  
Month to date cooling degree days 96 89  
Year to date cooling degree days 120 142  
Growing Degree Days 31 (Base 50)    
Moisture  
Dew Point 69 °F    
Average Humidity 66    
Maximum Humidity 87    
Minimum Humidity 44    
Precipitation  
Precipitation T in 0.09 in 2.87 in (1949)
Month to date precipitation 2.99 4.10  
Year to date precipitation 13.28 18.83  
Snow  
Snow 0.00 in - 0.00 in ()
Month to date snowfall 0.0  
Since 1 July snowfall 5.0  
Snow Depth 0.00 in    
Sea Level Pressure  
Sea Level Pressure 29.69 in    
Wind  
Wind Speed 13 mph (SSE)    
Max Wind Speed 24 mph    
Max Gust Speed 34 mph    
Visibility 9 miles    
Events Rain , Thunderstorm    
T = Trace of Precipitation, MM = Missing Value Source: NWS Daily Summary

Daily Weather History Graph

Daily Weather History Graph

Search for Another Location

Airport:

Trip Planner

Search our weather history database for the weather conditions in past years. The results will help you decide how hot, cold, wet, or windy it might be!

Date:

Astronomy

Apr. 27, 2014 Rise Set
Actual Time 6:29 AM CDT 7:46 PM CDT
Civil Twilight 6:03 AM CDT 8:12 PM CDT
Nautical Twilight 5:33 AM CDT 8:43 PM CDT
Astronomical Twilight 5:01 AM CDT 9:14 PM CDT
Moon 5:22 AM CDT (4/27) 6:26 PM CDT (4/27)
Length of Visible Light 14h 08m
Length of Day
13h 17m
Waning Crescent, 3% of the Moon is Illuminated
Apr 27
Waning Crescent
Apr 29
New
May 6
First Quarter
May 14
Full
May 21
Last Quarter

Hourly Weather History & Observations

Time (CDT) Temp. Heat Index Dew Point Humidity Pressure Visibility Wind Dir Wind Speed Gust Speed Precip Events Conditions
12:53 AM 73.0 °F - 69.1 °F 87% 29.81 in 8.0 mi SSE 11.5 mph - N/A   Partly Cloudy
1:21 AM 73.0 °F - 69.1 °F 87% 29.79 in 8.0 mi SSE 12.7 mph - N/A   Mostly Cloudy
1:53 AM 73.0 °F - 69.1 °F 87% 29.78 in 8.0 mi SSE 8.1 mph - N/A   Mostly Cloudy
2:53 AM 73.0 °F - 69.1 °F 87% 29.78 in 8.0 mi SSE 9.2 mph - 0.00 in Rain Light Rain
3:18 AM 73.0 °F - 69.1 °F 87% 29.77 in 8.0 mi SSE 10.4 mph - 0.00 in   Mostly Cloudy
3:26 AM 73.0 °F - 69.1 °F 87% 29.76 in 9.0 mi SSE 8.1 mph - 0.00 in   Mostly Cloudy
3:53 AM 73.9 °F - 69.1 °F 85% 29.77 in 9.0 mi South 8.1 mph - 0.00 in   Overcast
4:53 AM 75.0 °F - 69.1 °F 82% 29.77 in 9.0 mi South 9.2 mph 18.4 mph N/A   Overcast
5:53 AM 75.0 °F - 69.1 °F 82% 29.76 in 10.0 mi South 8.1 mph 19.6 mph N/A   Overcast
6:53 AM 73.9 °F - 69.1 °F 85% 29.76 in 8.0 mi South 10.4 mph - N/A   Overcast
7:53 AM 75.0 °F - 69.1 °F 82% 29.75 in 8.0 mi SSE 10.4 mph - N/A   Overcast
8:53 AM 75.9 °F - 69.1 °F 79% 29.74 in 9.0 mi SSE 10.4 mph - N/A   Scattered Clouds
9:53 AM 80.1 °F 82.9 °F 69.1 °F 69% 29.72 in 10.0 mi South 12.7 mph 20.7 mph N/A   Scattered Clouds
10:07 AM 81.0 °F 84.1 °F 69.1 °F 67% 29.71 in 10.0 mi SSE 13.8 mph 21.9 mph N/A   Mostly Cloudy
10:41 AM 82.9 °F 86.5 °F 69.1 °F 63% 29.70 in 10.0 mi South 15.0 mph 24.2 mph N/A   Scattered Clouds
11:53 AM 84.9 °F 89.4 °F 70.0 °F 61% 29.70 in 10.0 mi South 16.1 mph 25.3 mph N/A   Mostly Cloudy
12:53 PM 87.1 °F 90.6 °F 68.0 °F 53% 29.67 in 10.0 mi South 11.5 mph 29.9 mph N/A   Partly Cloudy
1:53 PM 89.1 °F 91.0 °F 64.9 °F 45% 29.65 in 10.0 mi South 16.1 mph 31.1 mph N/A   Partly Cloudy
3:32 PM 88.0 °F 91.4 °F 68.0 °F 51% 29.63 in 10.0 mi South 17.3 mph 29.9 mph N/A Thunderstorm Partly Cloudy
3:53 PM 86.0 °F 90.1 °F 69.1 °F 57% 29.63 in 10.0 mi South 17.3 mph 27.6 mph N/A   Partly Cloudy
4:01 PM 84.0 °F 87.8 °F 69.1 °F 61% 29.62 in 10.0 mi SSE 17.3 mph 28.8 mph N/A Thunderstorm Scattered Clouds
4:16 PM 84.9 °F 90.1 °F 71.1 °F 63% 29.62 in 10.0 mi South 12.7 mph 27.6 mph N/A   Partly Cloudy
4:53 PM 82.9 °F 88.0 °F 72.0 °F 69% 29.62 in 9.0 mi South 12.7 mph 25.3 mph N/A   Scattered Clouds
5:53 PM 82.0 °F 86.3 °F 71.1 °F 69% 29.61 in 8.0 mi South 13.8 mph 25.3 mph N/A   Mostly Cloudy
6:53 PM 81.0 °F 84.9 °F 71.1 °F 72% 29.60 in 8.0 mi South 11.5 mph - N/A   Overcast
7:53 PM 79.0 °F - 70.0 °F 74% 29.60 in 8.0 mi SSE 15.0 mph 23.0 mph N/A   Mostly Cloudy
8:53 PM 78.1 °F - 70.0 °F 76% 29.60 in 9.0 mi South 10.4 mph - N/A   Overcast
9:53 PM 77.0 °F - 69.1 °F 76% 29.63 in 10.0 mi South 10.4 mph 21.9 mph N/A   Overcast
10:53 PM 77.0 °F - 69.1 °F 76% 29.65 in 9.0 mi SSE 11.5 mph 20.7 mph N/A   Overcast
11:16 PM 75.9 °F - 70.0 °F 82% 29.62 in 9.0 mi SSE 12.7 mph 23.0 mph N/A   Mostly Cloudy